Regional Weather Roundup
Issued by NWS

Home | Current Version | Previous Version | Graphics & Text | Print | Product List | Glossary Off
Versions: 1 2 3 4 5 6 7 8 9 10 11 12 13 14 15 16 17 18 19 20 21 22 23 24 25 26 27 28 29 30 31 32 33 34 35 36 37 38 39 40 41 42 43 44 45 46 47 48 49 50

000
ASUS43 KMKX 232221
RWRWI

WISCONSIN REGIONAL WEATHER ROUNDUP
NATIONAL WEATHER SERVICE MILWAUKEE/SULLIVAN WI
500 PM CDT WED AUG 23 2017

NOTE: "FAIR" INDICATES FEW OR NO CLOUDS BELOW 12,000 FEET WITH NO
SIGNIFICANT WEATHER AND/OR OBSTRUCTIONS TO VISIBILITY.

WIZ001-002-006>008-014>016-023>028-232300-
NORTHWEST WISCONSIN

CITY           SKY/WX    TMP DP  RH WIND       PRES   REMARKS
SUPERIOR ARPT    N/A     66  48  51 CALM      30.05S
ASHLAND        SUNNY     66  48  52 NE5       30.07F
HAYWARD        MOSUNNY   66  46  48 N7        30.06F
SIREN          MOSUNNY   69  45  42 N5        30.06S
CUMBERLAND     MOSUNNY   64  45  48 N6        30.07S
RICE LAKE      MOSUNNY   66  48  53 CALM      30.08S
CHETEK         MOSUNNY   69  49  48 N5        30.06S
LADYSMITH      MOSUNNY   68  47  45 N5        30.08S
EAU CLAIRE     MOSUNNY   72  48  42 N9        30.04F
MENOMONIE      PTSUNNY   71  51  47 NW9       30.05S
NEW RICHMOND   SUNNY     71  49  45 NW9       30.06S
OSCEOLA        PTSUNNY   72  51  46 NW6       30.07F
$$

WIZ003>005-009-010-017-018-232300-
NORTH CENTRAL WISCONSIN

CITY           SKY/WX    TMP DP  RH WIND       PRES   REMARKS
MANITOWISH WTR MOSUNNY   59  42  54 N7        30.07R
ARBOR VITAE    SUNNY     63  42  46 NW12      30.06S
WOODRUFF       SUNNY     63  42  46 NW12      30.06S
RHINELANDER    MOSUNNY   65  45  48 NW9       30.05S
EAGLE RIVER    SUNNY     63  37  38 NW10      30.05S
LAND O LAKES   SUNNY     63  42  47 N8        30.07S
PHILLIPS       MOSUNNY   64  47  54 N7        30.05S
TOMAHAWK         N/A     66  45  46 NW9       30.05S
MEDFORD        MOSUNNY   64  47  55 NW6       30.05R
MERRILL        SUNNY     66  48  52 N6        30.05R
$$

WIZ029-030-035-036-043>047-232300-
CENTRAL WISCONSIN

CITY           SKY/WX    TMP DP  RH WIND       PRES   REMARKS
WAUSAU         MOSUNNY   69  46  43 NW9       30.02S
MOSINEE        MOSUNNY   68  48  49 NW8       30.04S
MARSHFIELD     SUNNY     67  48  50 NW10      30.04S
STEVENS POINT  MOSUNNY   69  47  45 NW8       30.03S
WAUPACA        MOSUNNY   73  45  37 W6        30.01F
WAUTOMA        PTSUNNY   71  49  45 N10       30.02F
WISC RAPIDS    MOSUNNY   70  49  47 NW10      30.04S
CAMP DOUGLAS   MOSUNNY   72  52  49 NW10      30.03F
$$

WIZ011>013-019>022-031-037>040-048>050-232300-
NORTHEAST WISCONSIN

CITY           SKY/WX    TMP DP  RH WIND       PRES   REMARKS
ANTIGO         PTSUNNY   64  47  54 NW8       30.04R
SHAWANO        MOSUNNY   72  45  37 NW10      30.00S
OCONTO         CLOUDY    68  51  55 S3        29.99S
STURGEON BAY   SUNNY     67  51  56 N5        30.01S
GREEN BAY      MOSUNNY   72  53  51 CALM      29.99F
MANITOWOC      PTSUNNY   66  53  63 SE9       30.01F
APPLETON       PTSUNNY   72  43  35 W13       29.99F
CLINTONVILLE   SUNNY     70  45  40 NW8       30.01S
OSHKOSH        SUNNY     71  49  45 NW8       30.00F
$$

WIZ032>034-041-042-053>061-232300-
SOUTHWEST WISCONSIN

CITY           SKY/WX    TMP DP  RH WIND       PRES   REMARKS
LA CROSSE      MOSUNNY   77  52  41 NW12      30.03F
SPARTA         SUNNY     71  49  45 NW12      30.05S
VIROQUA        MOSUNNY   71  53  53 NW8       30.05F
BOSCOBEL       SUNNY     77  49  37 NW9       30.03F
PRAIRIE DU CHI SUNNY     76  45  32 NW8G16    30.03S
PLATTEVILLE    MOSUNNY   73  53  48 NW8       30.05S
$$

WIZ056-057-062-063-064-067-068-232300-
SOUTH CENTRAL WISCONSIN

CITY           SKY/WX    TMP DP  RH WIND       PRES   REMARKS
REEDSBURG      SUNNY     71  49  45 NW7       30.03S
BARABOO/DELLS  MOSUNNY   73  44  35 NW9       30.03F
LONE ROCK      SUNNY     74  53  48 NW12      30.03F
MINERAL POINT  MOSUNNY   73  50  43 NW8       30.04F
MADISON        PTSUNNY   72  51  47 NW8       30.02F
MIDDLETON      MOSUNNY   72  52  49 NW7G20    30.03F
WATERTOWN      MOSUNNY   71  51  49 W9        30.01F
MONROE         PTSUNNY   70  52  52 N7        30.04S
JANESVILLE     PTSUNNY   73  50  43 NW9       30.01F
$$

WIZ051-052-058>065-066-070>072-232300-
SOUTHEAST WISCONSIN

CITY           SKY/WX    TMP DP  RH WIND       PRES   REMARKS
MILWAUKEE      PTSUNNY   70  56  61 SE7       30.01S
WAUKESHA       PTSUNNY   72  48  43 W12       30.03S
MILWAUKEE/TIMM MOSUNNY   73  43  33 NW13      30.01F
RACINE         MOSUNNY   69  55  60 E7        30.03F
KENOSHA        MOSUNNY   71  49  45 NW8       30.02S
FOND DU LAC    MOSUNNY   72  48  42 N8        30.01F
SHEBOYGAN      SUNNY     71  52  50 NW7       30.00F
WEST BEND      MOSUNNY   68  48  49 N7        30.01S
JUNEAU         MOSUNNY   69  48  47 NW3       30.03S
$$

LSZ147-162-232300-
LAKE SUPERIOR

STATION/POSITION TIME  TEMP    WIND        PRES    WAVE
                       AIR SEA DIR/SP/G            HT/PER
                 (UTC) (F)     (DEG/KT/KT) (MB)    (FT/S)
W MID LAKE BUOY  2150   60 60  230/  8/ 10 1017.7S   1/ 3
DEVILS ISLAND    2200   62     150/  5/  8 1018.1F
PORT WING        2140   91      20/  3/  4 1017.9F
SAXON HARBOR     2130   64      50/  4/  7 1018.3S
$$

LMZ867-665-643>646-232300-
LAKE MICHIGAN

STATION/POSITION TIME  TEMP    WIND        PRES    WAVE
                       AIR SEA DIR/SP/G            HT/PER
                 (UTC) (F)     (DEG/KT/KT) (MB)    (FT/S)
S GREEN BAY BUOY 2200   68 72  180/  4/  6 1015.5
N MID LAKE BUOY  2150   62 67   80/ 10/ 12 1016.5R   2/ 4
NORTHPORT PIER   2140   66     350/  7/  9 1015.6S
KEWAUNEE LAKESHO 2200   65     150/  7/  8 1015.3
SHEBOYGAN LAKESH 2200   66     130/  9/  9 1015.9S
PORT WASHINGTON  2140   74     340/  7/ 11 1016.9S
ATWATER BUOY     2109   68 71  140/  8/ 10 1016.4F
MILWAUKEE LAKESH 2200   67     130/  9/ 10   N/A
S MID LAKE BUOY  2150   66 71   10/  4/  6 1016.5F   2/ 5
KENOSHA   LAKESH 2200   69      90/  6/  7 1016.3
$$

TC  - TEMPERATURE IN CELSIUS
VSB - VISIBILITY IN STATUTE MILES
WCI - WIND CHILL INDEX
HX  - HEAT INDEX




USA.gov is the U.S. government's official web portal to all federal, state and local government web resources and services.